Regional Weather Roundup
Issued by NWS

Home | Current Version | Previous Version | Graphics & Text | Print | Product List | Glossary On
Versions: 1 2 3 4 5 6 7 8 9 10 11 12 13 14 15 16 17 18 19 20 21 22 23 24 25 26 27 28 29 30 31 32 33 34 35 36 37 38 39 40 41 42 43 44 45 46 47 48 49 50
000
ASUS43 KIND 281409
RWRIN

WEATHER ROUNDUP FOR INDIANA
NATIONAL WEATHER SERVICE INDIANAPOLIS IN
1000 AM EDT THU AUG 28 2014

NOTE: "FAIR" INDICATES FEW OR NO CLOUDS BELOW 12,000 FEET WITH NO
SIGNIFICANT WEATHER AND/OR OBSTRUCTIONS TO VISIBILITY.

* - STATION DOES NOT REPORT WEATHER SUCH AS PRECIPITATION OR FOG.

+ - STATION NOT QUALITY CONTROLLED BY THE NATIONAL WEATHER SERVICE.
    USE DATA WITH CAUTION...ESPECIALLY DEWPOINT AND RELATIVE
    HUMIDITY OBSERVATIONS.

INZ001>003-010>013-019-020-281500-
NORTHWEST INDIANA

CITY           SKY/WX    TMP DP  RH WIND       PRES   REMARKS
GARY /AIRPORT/ MOSUNNY   68  57  68 VRB5      30.14F
KNOX *+        SUNNY     64  58  80 CALM      30.13S
LA PORTE +     CLOUDY    63  57  81 E6        30.15F
MICHIGAN CITY+ PTSUNNY   63  59  88 E3        30.15S
MONTICELLO +   MOSUNNY   68  63  85 E6        30.12S
RENSSELAER +   SUNNY     68  64  88 NE6       30.13S
VALPARAISO     SUNNY     66  58  75 E7        30.14F

$$

LMZ046-743>745-281500-
SOUTHERN LAKE MICHIGAN

STATION/POSITION TIME  TEMP WIND        PRES
                       AIR  DIR/SP/G
                 (UTC) (F)  (DEG/KT/KT) (MB)
MICHIGAN CITY    1400   63   70/  5/  7   N/A

$$

INZ004-005-014>016-021>024-281500-
NORTH CENTRAL INDIANA

CITY           SKY/WX    TMP DP  RH WIND       PRES   REMARKS
ELKHART        SUNNY     64  57  77 CALM      30.15
GOSHEN         SUNNY     66  60  81 CALM      30.14S
LOGANSPORT +   SUNNY     68  61  77 E8        30.13S
PERU/GRISSOM   SUNNY     69  68  97 E7        30.13S
ROCHESTER +    SUNNY     70  63  78 E5        30.13F
SOUTH BEND     SUNNY     66  56  70 E5        30.15S
WARSAW +       SUNNY     66  61  82 E3        30.14S

$$

INZ006>009-017-018-025>027-281500-
NORTHEAST INDIANA

CITY           SKY/WX    TMP DP  RH WIND       PRES   REMARKS
ANGOLA *+      MOSUNNY   66  57  72 SE9       30.15S
AUBURN +       PTSUNNY   66  59  77 E8        30.16S
FORT WAYNE     MOSUNNY   68  63  84 E7        30.14S
HUNTINGTON +   SUNNY     67  64  88 NE3       30.14S

$$

INZ028-029-035-036-043>045-051>053-281500-
WEST CENTRAL INDIANA

CITY           SKY/WX    TMP DP  RH WIND       PRES   REMARKS
GREENCASTLE +  MOSUNNY   70  64  83 E6        30.11S
LAFAYETTE      PTSUNNY   67  63  87 NE7       30.11S
TERRE HAUTE    SUNNY     72  65  78 E5        30.09S

$$

INZ030>032-037>040-046>048-054>057-064-065-281500-
CENTRAL INDIANA

CITY           SKY/WX    TMP DP  RH WIND       PRES   REMARKS
ANDERSON       SUNNY     70  63  78 E12       30.14R
CP ATTERBURY + MOSUNNY   72  64  78 E5        30.11R
FRANKFORT +    CLOUDY    68  68 100 E5        30.13R
INDIANAPOLIS   PTSUNNY   72  64  76 NE6       30.10R
-EAGLE CREEK   CLOUDY    70  61  73 NE5       30.11R
KOKOMO *+      MOSUNNY   68  63  83 E7        30.13S
MARION +       MOSUNNY   69  62  78 E6        30.14R
MT COMFORT *+  MOSUNNY   72  70  94 CALM      30.12R
SHELBYVILLE    MOSUNNY   73  65  75 E3        30.10S
ZIONSVILLE +   MOSUNNY   71  63  77 E5        30.13R

$$

INZ033-034-041-042-049-050-058-059-281500-
EAST CENTRAL INDIANA

CITY           SKY/WX    TMP DP  RH WIND       PRES   REMARKS
MUNCIE         PTSUNNY   69  63  81 E7        30.13R

$$

INZ060-061-067>069-081>083-085>088-281500-
SOUTHWEST INDIANA

CITY           SKY/WX    TMP DP  RH WIND       PRES   REMARKS
EVANSVILLE     SUNNY     79  72  79 E3        30.05F
WASHINGTON +   SUNNY     76  70  80 CALM      30.07R

$$

INZ062-063-066-070>080-084-089>092-281500-
SOUTH CENTRAL AND SOUTHEAST INDIANA

CITY           SKY/WX    TMP DP  RH WIND       PRES   REMARKS
BLOOMINGTON    SUNNY     74  64  71 NE5       30.10R

$$




USA.gov is the U.S. government's official web portal to all federal, state and local government web resources and services.